Location: Newark
(15.4608°S, 41.1635°W)
Time: 21:18:13
(UTC+00:00)

Envisat - Pass Details

Date: 10 December 2019
Orbit: 764 x 766 km, 98.1° (Epoch: 23 January)

Event Time Altitude Azimuth Distance (km) Brightness Sun altitude
Rises 22:19:07 0° 195° (SSW) 3,245 7.0 -16.1°
Reaches altitude 10° 22:22:13 10° 214° (SW) 2,313 6.5 -16.7°
Maximum altitude 22:25:23 17° 253° (WSW) 1,881 6.0 -17.4°
Drops below altitude 10° 22:28:32 10° 292° (WNW) 2,300 6.0 -18.0°
Sets 22:31:37 0° 312° (NW) 3,219 6.4 -18.7°
